THORAD AGENA D DEB

Satellite information

Favourite Embed

Satellite Type and Status

DEBRISIN ORBIT

Key statistics

Satellite THORAD AGENA D DEB at a glance.

Uptime

20178

Days in orbit

Revolutions

≈ 14.0

Per day

Orbit

SSO

Sun Synchronous Orbit

Inclination

100.0

Latest

Satellite identification and parameters

Extended collection of information and parameters for THORAD AGENA D DEB.

Object identification

Identified? True

Debris? True

Object name: THORAD AGENA D DEB

International designator: 1970-025CA

Object number (NORAD): 4716

Object ID (CCSDS): 4716

Country: UNITED STATES OF AMERICA (US)

Current information (Y/N): Y

RCS size: MEDIUM

Orbital parameters

Period: 102.494 minutes

Inclination: 99.9535 deg

SMA: 7254.806 km

Apoapsis: 882.672 km

Periapsis: 870.669 km

RAAN: 299.3895 deg

Eccentricy: 0.0008272

Argument of periapsis: 160.8387 deg

Mean anomaly: 228.4933 deg

Mean motion: 14.04960448 rev/day

Mean motion (dot): 0.0000089 rev/day2

B* drag term: 0.00058556 1/REarth

Two-line elements (TLE)

Creation date: July 5, 2025, 5:45 p.m.

Reference frame: TEME

Reference center: EARTH

Epoch: July 5, 2025, 6:40 a.m. UTC

TLE line 0: 0 THORAD AGENA D DEB

TLE line 1: 1 04716U 70025CA 25186.27829586 .00000890 00000-0 58556-3 0 9990

TLE line 2: 2 04716 99.9535 299.3895 0008272 160.8387 228.4933 14.04960448776761

Live tracking on map

Real-time ground track for satellite THORAD AGENA D DEB.

In-orbit conjunctions

A list of the most updated potential collisions computed for object THORAD AGENA D DEB.

Target Orbit TCA Probability of collision Miss distance Type
CZ-6A DEB LEO 2025-01-28 07:57:33 0.0002522479 61.0 (m) DEBRIS
FENGYUN 1C DEB SSO 2024-09-13 03:07:27 0.0001454633 60.0 (m) DEBRIS

Associated space launch

Meteorological research and development satellite

THORAD AGENA D DEB was lifted into orbit during the mission ‘Thorad SLV-2G Agena D | Nimbus 4’, on board a Thorad SLV-2G Agena D space rocket.

The launch took place on April 8, 1970, 8:17 a.m. from Space Launch Complex 2E.

For more information about the launch, click the button.

Launch to space Thorad SLV-2G Agena D | Nimbus 4
Thorad SLV-2G Agena D | Nimbus 4

Agency: N/A

Status: Launch Successful

Launch date: April 8, 1970, 8:17 a.m. UTC

Rocket: Thorad SLV-2G Agena D

Launch pad: Space Launch Complex 2E

Location: Vandenberg SFB, CA, USA

...

Latest news about this satellite

There are no fresh news available about this satellite. Check back as we update our databases every day.


Newsletter sign-up

Weekly statistics, charts and insights to help you stay on top of the space industry.